ZTF彗星

C/2021 E3 ( ZTF )

English version
Home page
Updated on May 15, 2024

---------------------------------------------------------------------

・ プロフィール

発見日 2021年3月9日
発見光度 19.6等
発見者 Zwicky Transient Facility

・ 写真集

・ 軌道要素

Epoch 2023 Sept. 13.0 TT = JDT 2460200.5
T 2022 June 11.88046 TT                                 Rudenko
q   1.7772729            (2000.0)            P               Q
z  -0.0004381      Peri.  228.84594     -0.11495718     -0.43254692
 +/-0.0000005      Node   104.47937     -0.37420707     +0.85276111
e   1.0007786      Incl.  112.54361     -0.92019233     -0.29274843
>From 1504 observations 2021 Mar. 9-2024 Jan. 13, mean residual 0".6.

・ 星図

・ 光度変化

        m1 = 5.5 + 5 logΔ + 13.5 log r

---------------------------------------------------------------------

軌道要素はM.P.E.C. 2024-B140に掲載されたものです。
星図はステラナビゲータ Ver.10 (アストロアーツ) で作成したものです。
光度グラフはComet for Windowsで作成したものです。

---------------------------------------------------------------------

Copyright(C) Seiichi Yoshida (comet@aerith.net). All rights reserved.